Bennington, VT

6:07 PM EDT on April 23, 2017 (GMT -0400)
Morse State

Weather History for KDDH - December, 2012

Change the Weather History Date:

Monday, December 3, 2012

  Actual Average Record
Temperature  
Mean Temperature 41 °F 33 °F  
Max Temperature 50 °F 40 °F 54 °F (2001)
Min Temperature 32 °F 25 °F 6 °F (2002)
Degree Days  
Heating Degree Days 24 32  
Month to date heating degree days 75 96  
Since 1 July heating degree days 1527 1709  
Cooling Degree Days 0 0  
Month to date cooling degree days 0 0  
Year to date cooling degree days 476 313  
Moisture  
Dew Point 41 °F    
Average Humidity 82    
Maximum Humidity 92    
Minimum Humidity 71    
Precipitation  
Precipitation T in 0.10 in 0.68 in (2007)
Month to date precipitation 0.22 0.28  
Year to date precipitation 29.87 38.19  
Sea Level Pressure  
Sea Level Pressure 30.17 in    
Wind  
Wind Speed 5 mph (WSW)    
Max Wind Speed 14 mph    
Max Gust Speed 18 mph    
Visibility 10 miles    
Events      
T = Trace of Precipitation, MM = Missing Value Source: NWS Daily Summary

Daily Weather History Graph

Daily Weather History Graph

Search for Another Location

Airport or City:

Trip Planner

Search our weather history database for the weather conditions in past years. The results will help you decide how hot, cold, wet, or windy it might be!

Date:

Astronomy

Dec. 03, 2012 Rise Set
Actual Time 7:06 AM EST 4:19 PM EST
Civil Twilight 6:34 AM EST 4:50 PM EST
Nautical Twilight 5:59 AM EST 5:26 PM EST
Astronomical Twilight 5:25 AM EST 6:00 PM EST
Moon 9:07 PM EST (12/3) 10:25 AM EST (12/3)
Length of Visible Light 10h 16m
Length of Day
9h 12m
Waning Gibbous, 78% of the Moon is Illuminated
Dec 3
Waning Gibbous
Dec 6
Last Quarter
Dec 13
New
Dec 20
First Quarter
Dec 28
Full

Hourly Weather History & Observations

Time (EST) Temp. Windchill Dew Point Humidity Pressure Visibility Wind Dir Wind Speed Gust Speed Precip Events Conditions
12:54 AM 48.9 °F - 44.1 °F 83% 30.02 in 10.0 mi SW 5.8 mph - N/A   Overcast
1:54 AM 48.9 °F - 45.0 °F 86% 30.03 in 8.0 mi SSW 5.8 mph - N/A   Overcast
2:54 AM 48.9 °F - 45.0 °F 86% 30.06 in 8.0 mi Variable 3.5 mph - 0.00 in   Overcast
3:50 AM 50.0 °F - 46.4 °F 87% 30.06 in 10.0 mi WSW 4.6 mph - 0.00 in   Overcast
3:54 AM 50.0 °F - 46.0 °F 86% 30.07 in 10.0 mi SW 5.8 mph - 0.00 in   Overcast
4:01 AM 50.0 °F - 46.4 °F 87% 30.06 in 10.0 mi SSW 6.9 mph - N/A   Overcast
4:20 AM 50.0 °F - 46.4 °F 87% 30.07 in 10.0 mi West 5.8 mph - N/A   Overcast
4:39 AM 50.0 °F - 44.6 °F 82% 30.08 in 10.0 mi Variable 4.6 mph - N/A   Overcast
4:54 AM 48.9 °F - 45.0 °F 86% 30.10 in 10.0 mi Calm Calm - N/A   Overcast
5:54 AM 48.0 °F - 43.0 °F 83% 30.10 in 10.0 mi SW 6.9 mph - N/A   Overcast
6:54 AM 46.9 °F - 42.1 °F 83% 30.14 in 10.0 mi West 5.8 mph 16.1 mph N/A   Overcast
7:54 AM 46.9 °F - 41.0 °F 80% 30.16 in 10.0 mi WSW 5.8 mph - N/A   Overcast
8:54 AM 46.9 °F - 39.9 °F 77% 30.18 in 10.0 mi Calm Calm - N/A   Mostly Cloudy
10:28 AM 46.4 °F 43.5 °F 39.2 °F 76% 30.19 in 10.0 mi WNW 5.8 mph 16.1 mph N/A   Overcast
10:54 AM 46.9 °F - 39.9 °F 77% 30.21 in 10.0 mi West 5.8 mph - N/A   Overcast
11:05 AM 48.2 °F - 41.0 °F 76% 30.19 in 10.0 mi Variable 4.6 mph - N/A   Overcast
11:54 AM 48.9 °F - 39.9 °F 71% 30.19 in 10.0 mi West 6.9 mph - N/A   Overcast
12:54 PM 48.9 °F - 39.9 °F 71% 30.20 in 10.0 mi Variable 6.9 mph - N/A   Overcast
1:05 PM 48.2 °F - 39.2 °F 71% 30.20 in 10.0 mi West 6.9 mph - N/A   Overcast
1:54 PM 48.0 °F - 39.0 °F 71% 30.20 in 10.0 mi WNW 9.2 mph - N/A   Overcast
2:54 PM 48.0 °F - 39.0 °F 71% 30.20 in 10.0 mi West 5.8 mph - N/A   Overcast
3:54 PM 48.0 °F - 39.0 °F 71% 30.21 in 10.0 mi Variable 3.5 mph - N/A   Overcast
4:54 PM 46.0 °F 43.9 °F 39.0 °F 76% 30.23 in 10.0 mi WSW 4.6 mph - N/A   Overcast
5:54 PM 46.0 °F 43.1 °F 37.9 °F 73% 30.25 in 10.0 mi WSW 5.8 mph - N/A   Overcast
6:54 PM 45.0 °F 42.6 °F 37.9 °F 76% 30.26 in 10.0 mi SW 4.6 mph - N/A   Overcast
7:54 PM 45.0 °F 42.6 °F 37.9 °F 76% 30.27 in 10.0 mi West 4.6 mph - N/A   Overcast
8:54 PM 44.1 °F - 37.0 °F 76% 30.26 in 10.0 mi Calm Calm - N/A   Mostly Cloudy
9:04 PM 39.2 °F 35.9 °F 35.6 °F 87% 30.25 in 10.0 mi SSE 4.6 mph - N/A   Scattered Clouds
9:54 PM 35.1 °F - 33.1 °F 92% 30.27 in 10.0 mi Calm Calm - N/A   Clear
10:54 PM 35.1 °F 29.3 °F 32.0 °F 89% 30.27 in 9.0 mi SE 6.9 mph - N/A   Clear
11:54 PM 37.9 °F - 35.1 °F 89% 30.26 in 10.0 mi Calm Calm - N/A   Clear